Wind_Speed
36 35 34 34 35 35 35 34 34 34 34 35 34 35 35 36 37 38 37 37 37 38 38 38 38 37 36 37 38 37 37 37 37 37 36 36 37 37 37 38 38 38 38
35 34 34 34 34 35 34 34 34 34 35 34 34 34 35 35 36 37 36 37 38 39 39 39 39 39 38 37 37 37 37 37 37 37 37 37 38 38 38 38 38 38 39
34 34 34 34 34 34 33 33 33 33 33 33 33 34 34 35 36 35 36 38 38 39 39 39 40 40 40 40 39 39 37 37 37 37 37 38 38 38 38 39 39 39 40
33 33 33 33 33 33 33 33 32 32 32 33 33 34 34 35 35 36 37 38 39 39 39 40 40 40 40 41 41 40 40 40 39 38 38 39 39 40 39 40 40 40 41
31 31 32 32 32 32 33 33 32 32 32 32 33 34 35 35 36 36 37 38 37 37 38 39 38 38 39 40 40 40 40 40 40 39 39 40 40 40 41 41 41 42 42
29 29 30 31 31 31 32 33 33 33 33 33 33 33 33 34 36 36 37 37 37 37 36 37 38 37 38 39 40 40 40 40 41 42 41 41 41 41 42 41 41 42 42
28 28 28 29 30 30 31 32 33 33 33 34 34 34 34 35 36 37 37 38 38 39 39 39 40 40 40 40 40 41 42 43 43 43 43 43 43 43 43 43 43 43 43
29 29 29 29 30 30 31 32 34 34 34 34 34 34 34 35 36 36 37 38 38 39 39 40 41 41 41 42 43 43 43 45 45 44 43 43 43 44 44 44 45 45 44
29 30 30 30 30 31 31 33 34 35 35 35 35 34 34 35 35 36 37 37 38 38 39 40 41 41 42 42 43 44 45 46 46 46 45 44 44 44 44 45 45 45 45
30 30 30 31 31 31 32 32 32 33 34 34 35 35 35 34 35 36 37 37 38 39 39 40 40 41 42 43 42 43 44 45 46 46 46 46 45 45 45 45 46 47 48
28 28 29 30 31 31 31 32 33 32 33 34 34 34 34 35 35 35 35 36 37 38 38 39 39 40 40 42 42 43 44 44 45 46 47 47 47 47 47 47 48 48 48
28 28 28 29 29 30 31 31 32 33 33 33 34 34 35 35 36 36 37 37 38 38 39 40 41 41 41 42 43 44 44 45 46 46 46 46 47 47 47 48 48 48 49
28 27 27 28 29 29 30 31 32 33 33 34 34 34 34 35 36 37 37 38 38 39 39 40 41 41 42 42 43 44 45 45 46 46 46 46 46 48 48 48 49 49 51
28 27 26 27 28 29 29 31 32 33 34 34 34 35 35 36 36 37 38 39 39 39 39 40 41 42 42 43 43 44 45 46 45 45 46 46 48 48 49 49 50 51 52
28 27 27 27 28 29 29 30 31 32 33 34 35 35 36 37 37 38 38 39 39 40 40 40 40 41 42 43 45 45 45 45 45 46 47 48 49 50 50 51 51 52 52
29 28 28 28 28 29 29 30 31 32 33 34 35 36 37 37 37 37 38 39 39 39 40 40 40 41 42 43 43 44 45 45 45 45 46 47 48 50 50 51 52 52 51
29 29 28 28 28 28 29 30 30 32 32 33 34 35 36 36 37 37 38 38 39 40 40 40 40 41 42 43 43 43 44 44 44 44 45 46 48 49 50 51 51 51 51
29 29 30 30 30 30 30 30 31 31 32 33 34 35 36 36 37 37 38 38 39 39 40 40 41 41 42 42 43 43 44 45 45 46 46 47 48 49 50 50 51 51 50
29 29 29 29 30 30 30 31 31 32 32 33 34 35 35 36 36 37 37 38 39 39 40 41 41 41 41 42 42 43 44 44 46 47 47 48 48 49 49 49 49 49 50
27 28 29 29 30 30 31 31 31 32 32 32 33 33 34 34 35 35 36 37 38 39 39 40 40 40 40 40 41 42 43 43 44 45 46 47 48 48 48 48 48 48 48
28 29 30 30 30 31 31 32 32 32 32 33 33 33 33 34 34 35 36 37 37 38 38 39 39 39 39 40 40 41 42 43 44 45 45 46 46 46 46 47 47 46 46
28 29 30 31 31 31 31 32 32 32 33 33 33 34 34 35 35 36 36 37 37 38 38 39 39 40 40 40 41 42 43 44 45 45 46 46 45 45 45 45 45 45 45
28 29 29 30 31 31 31 32 32 32 33 33 34 34 35 35 35 35 36 37 38 38 38 38 39 39 40 41 41 43 43 44 45 45 46 46 45 45 45 45 45 45 45
27 27 28 29 29 30 30 31 31 31 32 32 32 33 34 34 35 36 37 37 38 38 38 38 39 40 40 41 42 43 44 44 45 45 44 45 45 45 44 44 44 45 44
27 27 27 28 29 30 30 30 30 31 31 31 31 32 33 34 34 35 36 36 37 37 38 39 39 40 41 41 43 43 44 44 44 44 43 44 44 44 43 42 42 42 41
27 27 27 28 29 29 29 29 30 30 31 31 31 32 32 33 33 34 35 35 36 37 38 38 39 40 41 42 42 42 42 42 42 42 42 41 41 42 41 41 40 40 40
Wind_Direction
257 259 259 258 258 257 256 255 254 253 253 252 252 252 252 251 249 250 250 251 251 251 252 253 256 257 258 259 260 259 261 262 263 265 266 267 268 269 271 271 272 272 272
258 258 259 259 258 257 256 255 254 254 253 252 251 252 252 251 250 250 250 251 252 254 254 255 256 257 259 260 260 261 261 263 263 264 266 267 268 269 270 271 272 272 273
260 260 260 259 257 256 255 254 254 255 253 252 252 252 250 250 249 249 251 253 254 255 256 256 257 258 259 260 262 261 262 262 264 266 266 267 268 270 270 271 271 272 273
260 259 259 258 256 255 253 252 254 253 252 253 253 252 251 251 250 250 251 254 255 256 255 256 258 258 260 262 262 262 262 263 265 266 267 268 269 270 270 271 272 273 274
261 260 259 257 255 254 252 251 252 252 252 253 253 253 253 253 253 253 254 254 255 256 256 257 258 260 263 264 264 264 264 265 266 268 269 270 270 271 272 272 272 274 275
262 261 260 257 256 254 253 252 252 253 253 254 254 254 255 255 255 255 256 256 256 257 257 259 259 261 263 264 265 264 264 265 268 269 271 272 273 273 273 273 273 274 275
261 261 259 258 257 256 254 252 251 253 254 255 255 255 256 256 256 257 257 256 257 257 258 260 261 262 263 264 264 264 264 266 268 270 271 272 274 275 276 276 275 276 276
262 261 260 259 258 257 255 253 253 254 254 255 256 256 256 257 258 259 258 259 259 260 261 261 263 264 265 266 265 266 266 267 269 270 270 272 273 274 275 276 276 276 276
264 263 261 260 259 258 257 257 256 254 253 255 256 257 257 258 258 259 259 260 261 263 264 263 264 266 267 269 269 269 269 270 271 270 271 272 273 273 275 276 276 277 277
265 264 262 261 260 259 258 257 256 254 253 254 256 257 258 259 259 260 260 261 263 263 263 264 264 265 267 268 269 270 270 270 271 270 271 271 272 273 274 275 276 277 278
265 263 262 261 261 259 257 256 256 254 254 255 256 257 257 258 259 261 263 263 264 265 265 266 266 267 268 268 270 270 270 274 273 272 272 271 272 274 274 275 275 277 277
266 264 262 261 260 259 258 257 256 256 257 258 258 259 258 259 260 262 263 265 266 267 267 268 268 270 270 271 272 272 273 275 274 273 272 272 272 273 274 275 275 276 277
266 264 263 260 260 260 259 258 258 257 257 258 259 260 261 261 261 263 264 266 267 268 268 269 269 271 271 272 273 274 273 275 275 274 274 274 274 274 275 276 276 276 277
265 263 261 261 261 260 260 259 259 259 259 259 260 261 261 262 262 264 265 266 267 268 269 270 271 272 272 273 273 274 275 275 275 275 275 275 276 278 278 278 278 278 278
263 261 260 262 262 262 261 261 260 260 260 260 261 262 263 263 263 264 266 267 268 269 270 271 272 273 273 273 274 274 275 276 276 276 276 276 278 279 279 278 279 279 280
262 260 260 261 262 262 262 262 262 261 261 262 262 263 264 265 265 265 267 269 270 271 271 271 272 272 273 274 274 275 275 277 277 278 278 277 278 278 278 279 279 280 280
260 257 259 261 262 263 263 263 263 263 263 264 264 265 265 265 265 266 268 268 269 271 271 272 273 273 274 274 275 275 275 276 278 278 278 278 278 278 279 279 279 279 279
259 259 261 263 264 265 265 265 265 265 265 266 267 266 266 267 267 268 268 268 269 271 272 272 274 275 276 276 275 275 275 275 277 278 278 278 279 279 280 280 280 280 279
262 261 262 264 265 267 267 267 268 269 269 269 270 270 269 269 269 269 269 269 270 271 273 274 274 276 277 277 277 277 277 277 278 279 279 279 279 280 280 280 280 279 279
265 262 262 265 267 268 268 269 269 271 271 271 271 271 271 272 272 271 271 271 271 272 274 275 277 277 278 278 278 279 279 279 279 280 281 281 281 281 281 280 280 280 279
267 267 265 265 267 269 269 270 271 272 273 272 272 272 272 273 274 273 273 274 275 275 276 277 279 280 280 280 281 281 280 281 281 281 282 282 282 282 281 281 281 281 280
268 269 267 267 268 269 270 271 271 273 273 273 273 273 272 273 274 275 275 276 276 277 278 279 280 281 281 281 283 283 283 283 282 282 282 282 283 282 280 280 281 281 280
270 270 269 268 268 269 271 272 272 274 274 274 274 274 273 274 275 276 277 278 278 278 280 280 282 282 282 283 284 284 284 284 284 283 282 282 283 281 280 279 279 279 279
272 272 271 270 270 271 271 273 273 274 274 274 274 274 274 275 276 277 278 279 279 279 281 282 282 283 283 284 285 285 286 285 285 285 284 283 283 282 281 280 279 278 278
272 273 272 270 270 271 272 273 273 274 275 275 275 276 277 277 278 278 279 281 282 283 283 284 285 285 285 286 286 286 287 286 286 286 285 284 284 283 282 280 279 278 279
273 274 275 274 272 272 273 274 275 276 277 277 277 277 278 279 279 280 281 283 284 285 286 287 287 287 287 288 288 288 288 287 287 287 286 285 284 284 282 281 281 279 279
Height
5710 5711 5712 5712 5713 5714 5715 5716 5718 5720 5722 5724 5726 5728 5730 5733 5736 5738 5741 5744 5747 5750 5752 5755 5757 5758 5760 5761 5763 5763 5765 5766 5767 5768 5768 5768 5768 5769 5769 5769 5768 5768 5768
5701 5702 5703 5704 5705 5706 5707 5708 5710 5712 5714 5716 5719 5721 5723 5725 5728 5731 5734 5736 5739 5741 5744 5746 5748 5750 5751 5752 5753 5755 5756 5757 5758 5759 5759 5760 5760 5760 5760 5760 5760 5759 5759
5693 5694 5695 5696 5697 5698 5699 5701 5703 5705 5707 5709 5711 5713 5715 5717 5720 5723 5726 5729 5731 5733 5735 5737 5740 5741 5742 5743 5745 5746 5747 5748 5749 5750 5750 5750 5751 5751 5751 5751 5750 5750 5750
5684 5685 5686 5688 5689 5690 5692 5694 5696 5697 5699 5701 5703 5705 5708 5710 5713 5715 5718 5721 5723 5724 5726 5728 5730 5732 5733 5734 5736 5737 5738 5739 5739 5739 5740 5741 5741 5741 5742 5741 5741 5740 5739
5677 5678 5679 5680 5681 5682 5684 5686 5688 5690 5692 5694 5696 5698 5700 5703 5705 5708 5710 5712 5714 5716 5718 5719 5721 5722 5724 5725 5726 5727 5728 5729 5729 5730 5730 5730 5730 5730 5731 5731 5730 5730 5728
5670 5670 5671 5673 5674 5675 5677 5679 5681 5683 5685 5687 5689 5691 5693 5695 5698 5700 5702 5704 5706 5708 5710 5711 5712 5713 5714 5715 5716 5717 5718 5719 5719 5720 5720 5720 5720 5719 5719 5720 5719 5719 5718
5663 5664 5665 5665 5667 5668 5669 5671 5674 5676 5678 5680 5682 5684 5685 5687 5689 5691 5693 5696 5697 5699 5701 5702 5703 5704 5705 5705 5706 5707 5708 5708 5709 5709 5709 5709 5709 5708 5708 5708 5707 5707 5707
5656 5657 5658 5658 5659 5661 5662 5664 5665 5668 5670 5672 5674 5676 5678 5679 5681 5683 5685 5687 5688 5690 5691 5692 5693 5694 5694 5695 5696 5696 5697 5697 5698 5698 5698 5697 5697 5696 5696 5695 5695 5695 5695
5648 5649 5650 5651 5652 5653 5654 5656 5657 5659 5662 5664 5666 5668 5669 5671 5673 5674 5676 5677 5678 5679 5681 5682 5683 5684 5684 5684 5685 5685 5685 5686 5686 5686 5686 5686 5685 5684 5684 5683 5682 5682 5682
5640 5641 5642 5643 5644 5645 5646 5648 5649 5651 5653 5655 5658 5659 5661 5662 5664 5665 5666 5667 5668 5669 5670 5671 5672 5673 5674 5674 5674 5674 5674 5674 5674 5674 5674 5673 5672 5672 5671 5670 5670 5669 5668
5632 5633 5634 5635 5636 5637 5638 5640 5641 5643 5645 5647 5648 5650 5652 5653 5655 5656 5657 5657 5658 5659 5660 5661 5661 5662 5662 5662 5663 5662 5662 5661 5661 5661 5661 5660 5659 5659 5658 5658 5657 5656 5655
5624 5625 5626 5627 5628 5629 5630 5632 5633 5635 5636 5638 5639 5641 5642 5644 5645 5646 5647 5648 5648 5649 5650 5650 5651 5651 5651 5651 5651 5651 5650 5649 5649 5648 5648 5647 5646 5646 5645 5644 5643 5642 5641
5617 5617 5618 5619 5620 5621 5622 5624 5625 5626 5628 5629 5631 5632 5633 5634 5636 5637 5637 5638 5638 5639 5639 5639 5640 5640 5640 5639 5639 5638 5637 5637 5636 5635 5635 5634 5633 5633 5632 5630 5629 5628 5626
5609 5610 5611 5611 5613 5613 5615 5616 5617 5618 5619 5620 5621 5623 5624 5625 5626 5627 5627 5628 5628 5628 5629 5628 5628 5628 5628 5627 5626 5626 5625 5624 5624 5623 5622 5621 5620 5619 5618 5617 5615 5614 5612
5601 5602 5603 5604 5605 5606 5607 5608 5609 5609 5610 5611 5612 5613 5614 5614 5615 5616 5617 5617 5617 5618 5618 5617 5617 5617 5616 5615 5614 5613 5612 5612 5611 5610 5608 5607 5606 5604 5603 5602 5601 5599 5597
5593 5595 5596 5596 5597 5598 5598 5599 5600 5601 5601 5602 5603 5603 5604 5604 5604 5605 5606 5606 5606 5606 5606 5606 5605 5605 5604 5603 5601 5601 5600 5599 5598 5597 5595 5594 5592 5590 5589 5587 5585 5584 5582
5585 5586 5587 5588 5589 5590 5590 5591 5591 5591 5592 5592 5593 5593 5594 5594 5594 5594 5595 5595 5595 5594 5594 5594 5593 5592 5591 5590 5589 5588 5587 5586 5585 5583 5582 5580 5578 5576 5575 5573 5571 5569 5567
5577 5578 5579 5580 5581 5581 5582 5582 5582 5582 5583 5583 5583 5583 5583 5583 5583 5583 5583 5583 5583 5583 5582 5582 5581 5580 5579 5577 5576 5575 5574 5573 5572 5570 5568 5566 5564 5562 5561 5559 5557 5555 5553
5569 5570 5571 5571 5572 5572 5573 5573 5573 5573 5573 5573 5573 5573 5573 5573 5572 5572 5572 5572 5572 5571 5571 5570 5569 5568 5566 5565 5563 5562 5561 5560 5559 5557 5554 5552 5551 5549 5547 5545 5543 5542 5540
5560 5561 5562 5562 5563 5563 5563 5563 5564 5564 5564 5563 5563 5563 5563 5562 5562 5562 5561 5561 5560 5560 5559 5558 5556 5555 5554 5552 5551 5549 5548 5548 5546 5544 5541 5539 5536 5534 5532 5530 5529 5528 5526
5552 5553 5553 5554 5554 5554 5554 5554 5554 5554 5554 5553 5553 5553 5553 5552 5552 5551 5550 5550 5549 5548 5547 5546 5545 5543 5542 5540 5538 5537 5535 5533 5532 5530 5528 5525 5522 5520 5518 5516 5514 5513 5512
5544 5544 5544 5544 5545 5545 5545 5545 5545 5545 5544 5544 5543 5543 5543 5542 5541 5540 5539 5538 5537 5536 5535 5534 5532 5531 5529 5528 5525 5523 5521 5519 5517 5516 5514 5511 5509 5507 5504 5502 5500 5499 5497
5535 5535 5535 5535 5535 5536 5536 5536 5535 5535 5534 5534 5533 5533 5532 5531 5530 5530 5529 5527 5526 5525 5524 5522 5521 5519 5517 5515 5513 5511 5508 5506 5503 5501 5499 5497 5495 5493 5490 5488 5487 5485 5483
5526 5526 5526 5526 5526 5527 5526 5526 5526 5525 5524 5524 5523 5522 5522 5521 5520 5519 5518 5517 5515 5514 5513 5511 5509 5507 5505 5503 5501 5498 5495 5493 5490 5487 5485 5483 5480 5478 5476 5474 5472 5471 5469
5518 5517 5517 5517 5517 5517 5517 5517 5516 5516 5515 5514 5513 5512 5511 5511 5510 5508 5507 5506 5504 5502 5501 5499 5497 5495 5493 5490 5488 5485 5482 5479 5477 5474 5471 5469 5466 5464 5462 5460 5458 5457 5455
5510 5509 5509 5508 5509 5508 5508 5508 5507 5506 5505 5504 5503 5502 5501 5500 5499 5498 5497 5494 5493 5491 5489 5487 5485 5482 5480 5477 5474 5471 5468 5466 5463 5460 5458 5456 5453 5451 5449 5447 5445 5444 5443